Flag for Austria Weather past 2 weeks in Hallein, Salzburg, Austria

Now
61 °F

Light rain. Passing clouds.


Feels Like: 61 °F
Forecast: 49 / 56 °F
Wind: 2 mph from North

Location: Salzburg-Flughafen

Current Time: Sep 30, 2014 at 11:00:57 PM

Latest Report: Sep 30, 2014 at 10:20 PM


Visibility: N/A

Pressure: 30.30 "Hg

Humidity: 94%

Dew point: 59 °F

Location of HalleinLocation

Historic Weather in Hallein — Graph

°F

Hallein temperature yesterday

Maximum temperature yesterday: 73 °F (at 3:20 PM)
Minimum temperature yesterday: 50 °F (at 12:50 AM)
Average temperature yesterday: 60 °F

Past Weeks' High & Low Weather Summary

 TemperatureHumidityPressure
High79 °F (Sep 18, 3:20 PM)100% (Sep 15, 9:50 PM)30.39 "Hg (Sep 15, 9:50 PM)
Low37 °F (Sep 24, 3:20 AM)37% (Sep 19, 1:50 PM)29.89 "Hg (Sep 17, 3:50 PM)
Average59 °F78%30.11 "Hg
* Reported Sep 15 9:20 PM — Sep 30 9:50 PM, Hallein, Weather by CustomWeather, © 2014

Note: Actual official high and low records may vary slightly from our data, if they occured in-between our weather recording intervals... More about our weather records

Advertising

Hallein weather history for previous 24 hours

 ConditionsComfort  
Time TempWeatherWind HumidityBarometerVisibility
9:50 PM
Sep 30
61 °FLight rain. Passing clouds.1 mph94%30.30 "HgN/A
9:20 PM63 °FPassing clouds.1 mph88%30.30 "HgN/A
8:50 PM63 °FPassing clouds.1 mph83%30.30 "HgN/A
8:20 PM63 °FLight rain. Passing clouds.2 mph83%30.30 "HgN/A
7:50 PM63 °FPassing clouds.1 mph83%30.30 "HgN/A
7:20 PM63 °FPartly sunny.1 mph83%30.30 "HgN/A
6:50 PM64 °FBroken clouds.3 mph78%30.30 "HgN/A
6:20 PM64 °FLight rain. Broken clouds.5 mph78%30.27 "HgN/A
5:50 PM66 °FLight rain. Broken clouds.6 mph73%30.27 "HgN/A
5:20 PM68 °FBroken clouds.8 mph69%30.27 "HgN/A
4:50 PM70 °FBroken clouds.9 mph69%30.27 "HgN/A
4:20 PM70 °FBroken clouds.8 mph69%30.27 "HgN/A
3:50 PM72 °FPartly sunny.8 mph65%30.27 "HgN/A
3:20 PM72 °FPartly sunny.7 mph65%30.27 "HgN/A
2:50 PM72 °FPartly sunny.8 mph61%30.27 "HgN/A
2:20 PM73 °FScattered clouds.6 mph61%30.27 "HgN/A
1:50 PM72 °FPartly sunny.5 mph65%30.27 "HgN/A
1:20 PM72 °FPartly sunny.6 mph61%30.30 "HgN/A
12:50 PM72 °FScattered clouds.5 mph61%30.30 "HgN/A
12:20 PM70 °FPassing clouds.2 mph57%30.30 "HgN/A
11:50 AM68 °FPassing clouds.1 mph60%30.30 "HgN/A
11:20 AM68 °FPassing clouds.2 mph64%30.30 "HgN/A
10:50 AM64 °FPassing clouds.2 mph73%30.30 "HgN/A
10:20 AM64 °FPassing clouds.6 mph73%30.30 "HgN/A
9:50 AM63 °FPassing clouds.7 mph73%30.30 "HgN/A
9:20 AM61 °FSunny.8 mph77%30.30 "Hg10 mi
8:50 AM59 °FSunny.9 mph82%30.30 "Hg10 mi
8:20 AM57 °FSunny.6 mph82%30.30 "Hg10 mi
7:50 AM55 °FClear.8 mph88%30.30 "Hg10 mi
7:20 AM55 °FPassing clouds.6 mph88%30.30 "HgN/A
6:50 AM55 °FPassing clouds.7 mph88%30.30 "HgN/A
6:20 AM54 °FPassing clouds.8 mph94%30.30 "HgN/A
5:50 AM54 °FPassing clouds.6 mph94%30.30 "HgN/A
5:20 AM54 °FSleet. Fog.6 mph94%30.30 "HgN/A
4:50 AM54 °FSleet. Passing clouds.3 mph94%30.30 "HgN/A
4:20 AM52 °FPassing clouds.3 mph94%30.30 "HgN/A
3:50 AM52 °FPassing clouds.5 mph100%30.30 "HgN/A
3:20 AM52 °FPassing clouds.2 mph94%30.30 "HgN/A
2:50 AM54 °FCool.1 mph94%30.30 "HgN/A
2:20 AM54 °FCool.2 mph100%30.30 "HgN/A
1:50 AM52 °FCool.5 mph100%30.30 "HgN/A
1:20 AM55 °FCool.7 mph94%30.30 "HgN/A
12:50 AM55 °FCool.5 mph94%30.30 "HgN/A
12:20 AM55 °FCool.2 mph94%30.30 "HgN/A
11:50 PM
Sep 29
55 °FCool.5 mph94%30.30 "HgN/A
11:20 PM55 °FClear.5 mph94%30.30 "Hg10 mi
Weather by CustomWeather, © 2014

See weather overviewHow to use our weather pages